QPF
0.01 0.02 0.02 0.02 0.02 0.02 0.01 0.01 0.01 0.02 0.02 0.01 0.01 0.04 0.06 0.07 0.09 0.11 0.12 0.11 0.10 0.10 0.10 0.09 0.07 0.05 0.03 0.03 0.04 0.05 0.06 0.07 0.07 0.06 0.07 0.08 0.09 0.08 0.06 0.06 0.07 0.07 0.06
0.01 0.01 0.01 0.01 0.02 0.02 0.02 0.02 0.02 0.01 0.01 0.01 0.01 0.02 0.03 0.04 0.08 0.13 0.16 0.15 0.14 0.12 0.12 0.10 0.08 0.07 0.05 0.05 0.05 0.06 0.07 0.07 0.07 0.07 0.08 0.09 0.09 0.10 0.08 0.08 0.07 0.08 0.08
0.01 0.01 0.01 0.01 0.01 0.02 0.02 0.02 0.02 0.03 0.02 0.01 0.01 0.01 0.02 0.03 0.06 0.10 0.13 0.14 0.13 0.11 0.10 0.09 0.07 0.06 0.06 0.06 0.06 0.05 0.05 0.05 0.05 0.07 0.07 0.07 0.07 0.06 0.08 0.08 0.08 0.08 0.08
0.01 0.02 0.02 0.01 0.01 0.01 0.02 0.02 0.02 0.03 0.03 0.03 0.02 0.02 0.01 0.02 0.04 0.06 0.09 0.14 0.14 0.11 0.09 0.09 0.07 0.06 0.06 0.06 0.06 0.06 0.05 0.05 0.06 0.07 0.06 0.05 0.05 0.07 0.07 0.04 0.04 0.06 0.07
0.02 0.02 0.02 0.02 0.03 0.02 0.01 0.01 0.02 0.02 0.02 0.02 0.03 0.03 0.03 0.05 0.06 0.06 0.07 0.09 0.10 0.10 0.09 0.09 0.09 0.08 0.07 0.07 0.07 0.05 0.05 0.06 0.06 0.07 0.08 0.08 0.06 0.08 0.06 0.03 0.03 0.04 0.04
0.01 0.02 0.03 0.05 0.05 0.03 0.02 0.02 0.02 0.02 0.02 0.02 0.04 0.05 0.06 0.08 0.10 0.10 0.08 0.06 0.06 0.08 0.07 0.07 0.09 0.11 0.11 0.09 0.08 0.05 0.05 0.05 0.05 0.06 0.07 0.07 0.06 0.06 0.06 0.03 0.02 0.02 0.02
0.02 0.02 0.03 0.04 0.07 0.06 0.05 0.05 0.03 0.02 0.02 0.01 0.02 0.02 0.02 0.03 0.04 0.07 0.08 0.06 0.05 0.04 0.04 0.06 0.09 0.11 0.11 0.09 0.07 0.06 0.05 0.06 0.06 0.06 0.07 0.07 0.06 0.06 0.06 0.05 0.04 0.03 0.02
0.05 0.05 0.04 0.03 0.05 0.11 0.14 0.08 0.05 0.04 0.03 0.02 0.01 0.02 0.02 0.02 0.01 0.03 0.04 0.06 0.06 0.06 0.05 0.04 0.04 0.05 0.08 0.07 0.05 0.06 0.06 0.07 0.08 0.07 0.07 0.07 0.06 0.08 0.08 0.09 0.09 0.07 0.04
0.04 0.06 0.06 0.03 0.03 0.05 0.07 0.08 0.09 0.09 0.06 0.04 0.02 0.02 0.02 0.01 0.01 0.02 0.02 0.04 0.06 0.07 0.06 0.05 0.05 0.06 0.06 0.05 0.04 0.04 0.04 0.06 0.07 0.08 0.09 0.10 0.08 0.07 0.08 0.10 0.11 0.12 0.09
0.04 0.05 0.08 0.04 0.02 0.02 0.03 0.04 0.07 0.09 0.08 0.05 0.04 0.03 0.02 0.02 0.02 0.01 0.02 0.02 0.04 0.08 0.08 0.05 0.05 0.05 0.04 0.04 0.04 0.03 0.04 0.04 0.05 0.06 0.07 0.06 0.06 0.07 0.10 0.14 0.13 0.13 0.13
0.02 0.02 0.03 0.03 0.02 0.01 0.02 0.02 0.04 0.07 0.06 0.05 0.04 0.03 0.03 0.02 0.02 0.02 0.02 0.02 0.02 0.06 0.10 0.09 0.06 0.05 0.05 0.04 0.03 0.03 0.03 0.04 0.05 0.05 0.06 0.05 0.06 0.06 0.07 0.10 0.15 0.15 0.14
0.01 0.02 0.02 0.02 0.02 0.02 0.02 0.02 0.02 0.02 0.03 0.03 0.03 0.02 0.03 0.03 0.02 0.02 0.02 0.03 0.03 0.04 0.09 0.14 0.12 0.08 0.06 0.04 0.03 0.02 0.02 0.04 0.05 0.06 0.06 0.05 0.06 0.07 0.08 0.09 0.11 0.12 0.12
0.01 0.01 0.02 0.01 0.01 0.02 0.03 0.02 0.02 0.02 0.02 0.02 0.01 0.02 0.02 0.02 0.03 0.03 0.03 0.03 0.03 0.04 0.06 0.10 0.13 0.11 0.07 0.05 0.04 0.04 0.03 0.03 0.04 0.05 0.05 0.05 0.07 0.06 0.06 0.07 0.07 0.09 0.10
0.01 0.01 0.02 0.02 0.01 0.01 0.02 0.03 0.02 0.02 0.02 0.03 0.03 0.03 0.03 0.03 0.04 0.06 0.06 0.05 0.05 0.05 0.05 0.07 0.09 0.11 0.10 0.08 0.07 0.06 0.04 0.03 0.04 0.04 0.04 0.06 0.06 0.05 0.05 0.05 0.06 0.07 0.07
0.02 0.01 0.01 0.03 0.03 0.02 0.02 0.03 0.03 0.03 0.02 0.04 0.05 0.07 0.07 0.04 0.04 0.04 0.06 0.08 0.09 0.07 0.06 0.06 0.07 0.10 0.13 0.11 0.08 0.07 0.05 0.04 0.06 0.05 0.05 0.05 0.05 0.04 0.04 0.05 0.06 0.09 0.09
0.02 0.02 0.02 0.03 0.04 0.04 0.04 0.04 0.03 0.03 0.03 0.05 0.07 0.07 0.06 0.04 0.03 0.03 0.04 0.05 0.08 0.10 0.08 0.07 0.07 0.07 0.07 0.09 0.09 0.07 0.06 0.05 0.05 0.05 0.06 0.07 0.06 0.05 0.05 0.05 0.07 0.07 0.08
0.02 0.02 0.03 0.04 0.05 0.07 0.06 0.05 0.04 0.03 0.03 0.04 0.05 0.05 0.04 0.03 0.04 0.04 0.03 0.03 0.04 0.06 0.07 0.07 0.08 0.07 0.06 0.07 0.08 0.08 0.07 0.06 0.04 0.05 0.06 0.05 0.04 0.05 0.04 0.04 0.05 0.04 0.06
0.05 0.05 0.05 0.06 0.07 0.09 0.11 0.09 0.05 0.03 0.04 0.05 0.06 0.05 0.05 0.05 0.05 0.03 0.03 0.03 0.04 0.04 0.05 0.06 0.07 0.06 0.07 0.09 0.08 0.08 0.08 0.06 0.07 0.06 0.04 0.03 0.04 0.05 0.04 0.05 0.05 0.04 0.06
0.10 0.11 0.11 0.10 0.10 0.11 0.13 0.13 0.08 0.07 0.08 0.05 0.04 0.03 0.03 0.04 0.04 0.03 0.02 0.02 0.02 0.03 0.03 0.04 0.05 0.06 0.07 0.08 0.09 0.08 0.07 0.06 0.05 0.04 0.04 0.03 0.03 0.03 0.03 0.04 0.04 0.05 0.05
0.08 0.11 0.09 0.07 0.06 0.07 0.08 0.09 0.11 0.08 0.07 0.06 0.03 0.02 0.03 0.05 0.06 0.05 0.05 0.04 0.04 0.04 0.04 0.04 0.05 0.06 0.06 0.07 0.07 0.07 0.05 0.04 0.03 0.04 0.04 0.03 0.02 0.02 0.02 0.03 0.03 0.04 0.04
0.05 0.06 0.07 0.08 0.08 0.07 0.08 0.08 0.06 0.04 0.03 0.03 0.03 0.04 0.06 0.08 0.09 0.07 0.05 0.05 0.06 0.06 0.05 0.05 0.06 0.06 0.05 0.03 0.03 0.04 0.03 0.02 0.02 0.03 0.03 0.02 0.03 0.03 0.03 0.03 0.03 0.04 0.04
0.02 0.03 0.04 0.06 0.05 0.06 0.06 0.05 0.03 0.04 0.05 0.06 0.07 0.07 0.08 0.07 0.07 0.08 0.08 0.08 0.07 0.08 0.08 0.08 0.06 0.04 0.03 0.02 0.02 0.02 0.03 0.03 0.03 0.03 0.03 0.03 0.03 0.03 0.04 0.03 0.03 0.05 0.05
0.03 0.02 0.02 0.02 0.02 0.04 0.06 0.07 0.05 0.07 0.08 0.08 0.07 0.05 0.04 0.06 0.08 0.10 0.10 0.09 0.09 0.09 0.08 0.08 0.06 0.04 0.02 0.02 0.01 0.02 0.03 0.03 0.03 0.03 0.04 0.04 0.04 0.03 0.03 0.03 0.05 0.05 0.04
0.01 0.02 0.02 0.03 0.04 0.04 0.04 0.05 0.07 0.09 0.10 0.09 0.07 0.07 0.05 0.06 0.07 0.09 0.10 0.08 0.07 0.05 0.04 0.04 0.04 0.03 0.02 0.02 0.02 0.02 0.02 0.03 0.03 0.04 0.04 0.04 0.05 0.05 0.05 0.05 0.05 0.05 0.05
0.02 0.03 0.05 0.06 0.05 0.04 0.04 0.05 0.07 0.07 0.07 0.07 0.07 0.08 0.07 0.05 0.05 0.06 0.07 0.06 0.04 0.03 0.02 0.02 0.02 0.01 0.02 0.02 0.02 0.02 0.02 0.02 0.02 0.03 0.04 0.04 0.04 0.05 0.05 0.06 0.06 0.06 0.06
0.03 0.06 0.06 0.05 0.05 0.05 0.04 0.04 0.05 0.05 0.06 0.06 0.06 0.06 0.05 0.04 0.05 0.05 0.04 0.03 0.03 0.02 0.02 0.02 0.03 0.04 0.03 0.02 0.02 0.01 0.02 0.02 0.02 0.03 0.02 0.02 0.02 0.03 0.04 0.05 0.07 0.09 0.12
MSLP
1014.27 1014.59 1014.81 1014.94 1015.03 1015.10 1015.22 1015.41 1015.69 1016.04 1016.44 1016.82 1017.15 1017.39 1017.53 1017.55 1017.50 1017.40 1017.29 1017.22 1017.20 1017.24 1017.33 1017.46 1017.59 1017.71 1017.81 1017.87 1017.89 1017.89 1017.86 1017.80 1017.70 1017.55 1017.34 1017.05 1016.67 1016.23 1015.74 1015.24 1014.78 1014.38 1014.09
1014.18 1014.56 1014.81 1014.96 1015.03 1015.08 1015.17 1015.35 1015.63 1016.01 1016.46 1016.91 1017.30 1017.59 1017.74 1017.76 1017.66 1017.50 1017.32 1017.18 1017.11 1017.12 1017.19 1017.32 1017.46 1017.58 1017.67 1017.71 1017.71 1017.68 1017.62 1017.56 1017.48 1017.37 1017.21 1016.98 1016.68 1016.29 1015.83 1015.33 1014.84 1014.39 1014.02
1013.86 1014.31 1014.63 1014.82 1014.90 1014.95 1015.02 1015.17 1015.45 1015.84 1016.31 1016.80 1017.24 1017.58 1017.76 1017.79 1017.68 1017.48 1017.26 1017.07 1016.94 1016.91 1016.95 1017.05 1017.17 1017.27 1017.34 1017.36 1017.33 1017.28 1017.22 1017.17 1017.12 1017.08 1017.01 1016.88 1016.68 1016.39 1016.00 1015.55 1015.07 1014.61 1014.20
1013.30 1013.84 1014.25 1014.50 1014.63 1014.69 1014.75 1014.88 1015.13 1015.50 1015.97 1016.48 1016.95 1017.32 1017.54 1017.59 1017.49 1017.30 1017.06 1016.84 1016.68 1016.60 1016.61 1016.67 1016.75 1016.82 1016.85 1016.84 1016.79 1016.73 1016.67 1016.65 1016.66 1016.70 1016.73 1016.73 1016.65 1016.48 1016.20 1015.84 1015.41 1014.96 1014.53
1012.53 1013.17 1013.68 1014.03 1014.22 1014.31 1014.36 1014.46 1014.67 1015.00 1015.43 1015.93 1016.40 1016.80 1017.06 1017.16 1017.11 1016.95 1016.73 1016.50 1016.33 1016.23 1016.20 1016.22 1016.26 1016.29 1016.29 1016.24 1016.18 1016.11 1016.06 1016.07 1016.13 1016.25 1016.38 1016.49 1016.54 1016.50 1016.35 1016.09 1015.74 1015.34 1014.93
1011.63 1012.36 1012.98 1013.43 1013.70 1013.82 1013.88 1013.95 1014.10 1014.36 1014.74 1015.20 1015.67 1016.09 1016.39 1016.55 1016.57 1016.46 1016.29 1016.10 1015.93 1015.82 1015.76 1015.75 1015.75 1015.75 1015.71 1015.65 1015.56 1015.49 1015.46 1015.49 1015.59 1015.77 1015.97 1016.18 1016.34 1016.42 1016.38 1016.23 1015.98 1015.66 1015.30
1010.68 1011.49 1012.21 1012.75 1013.10 1013.27 1013.33 1013.36 1013.46 1013.65 1013.97 1014.38 1014.83 1015.26 1015.61 1015.84 1015.93 1015.91 1015.80 1015.66 1015.52 1015.42 1015.35 1015.32 1015.29 1015.26 1015.20 1015.12 1015.03 1014.96 1014.93 1014.98 1015.10 1015.31 1015.56 1015.82 1016.05 1016.21 1016.28 1016.23 1016.09 1015.86 1015.57
1009.78 1010.64 1011.43 1012.06 1012.46 1012.67 1012.74 1012.75 1012.79 1012.93 1013.18 1013.54 1013.97 1014.41 1014.81 1015.10 1015.28 1015.34 1015.32 1015.24 1015.14 1015.06 1014.99 1014.95 1014.91 1014.86 1014.79 1014.71 1014.63 1014.56 1014.54 1014.59 1014.71 1014.92 1015.17 1015.45 1015.72 1015.93 1016.06 1016.10 1016.04 1015.91 1015.72
1009.00 1009.88 1010.70 1011.37 1011.83 1012.07 1012.14 1012.14 1012.15 1012.24 1012.44 1012.77 1013.18 1013.63 1014.06 1014.42 1014.68 1014.82 1014.87 1014.85 1014.80 1014.74 1014.68 1014.64 1014.60 1014.55 1014.49 1014.43 1014.35 1014.30 1014.29 1014.33 1014.45 1014.63 1014.86 1015.12 1015.38 1015.60 1015.77 1015.87 1015.89 1015.85 1015.75
1008.36 1009.21 1010.03 1010.71 1011.18 1011.44 1011.53 1011.53 1011.53 1011.60 1011.78 1012.09 1012.50 1012.96 1013.42 1013.83 1014.14 1014.35 1014.46 1014.49 1014.48 1014.44 1014.40 1014.37 1014.34 1014.31 1014.28 1014.24 1014.20 1014.17 1014.17 1014.21 1014.30 1014.45 1014.64 1014.86 1015.08 1015.29 1015.47 1015.60 1015.69 1015.72 1015.71
1007.84 1008.62 1009.40 1010.04 1010.49 1010.75 1010.86 1010.88 1010.90 1010.98 1011.18 1011.50 1011.92 1012.39 1012.88 1013.31 1013.66 1013.91 1014.06 1014.13 1014.14 1014.13 1014.11 1014.10 1014.09 1014.10 1014.10 1014.10 1014.10 1014.11 1014.13 1014.17 1014.25 1014.37 1014.51 1014.68 1014.87 1015.05 1015.22 1015.37 1015.49 1015.59 1015.65
1007.38 1008.07 1008.75 1009.31 1009.73 1009.98 1010.10 1010.16 1010.22 1010.35 1010.59 1010.94 1011.38 1011.88 1012.38 1012.83 1013.20 1013.47 1013.64 1013.73 1013.76 1013.77 1013.78 1013.79 1013.82 1013.86 1013.92 1013.97 1014.02 1014.07 1014.12 1014.18 1014.25 1014.34 1014.45 1014.58 1014.72 1014.88 1015.03 1015.19 1015.35 1015.49 1015.61
1006.95 1007.50 1008.05 1008.51 1008.85 1009.08 1009.22 1009.33 1009.45 1009.66 1009.96 1010.36 1010.84 1011.36 1011.87 1012.33 1012.70 1012.98 1013.16 1013.27 1013.32 1013.35 1013.39 1013.44 1013.51 1013.60 1013.70 1013.81 1013.91 1014.00 1014.09 1014.16 1014.24 1014.32 1014.41 1014.52 1014.63 1014.77 1014.91 1015.08 1015.25 1015.42 1015.59
1006.50 1006.90 1007.29 1007.62 1007.88 1008.08 1008.23 1008.39 1008.60 1008.88 1009.26 1009.72 1010.25 1010.79 1011.31 1011.77 1012.14 1012.42 1012.61 1012.73 1012.82 1012.89 1012.96 1013.05 1013.17 1013.31 1013.46 1013.61 1013.76 1013.89 1014.00 1014.10 1014.19 1014.27 1014.36 1014.45 1014.56 1014.68 1014.83 1014.99 1015.17 1015.37 1015.57
1006.05 1006.27 1006.49 1006.69 1006.86 1007.01 1007.18 1007.40 1007.68 1008.05 1008.51 1009.04 1009.60 1010.16 1010.69 1011.14 1011.51 1011.80 1012.01 1012.16 1012.28 1012.40 1012.52 1012.66 1012.83 1013.01 1013.20 1013.39 1013.56 1013.71 1013.84 1013.96 1014.06 1014.15 1014.24 1014.34 1014.45 1014.58 1014.72 1014.89 1015.08 1015.29 1015.50
1005.63 1005.68 1005.73 1005.79 1005.87 1005.99 1006.17 1006.43 1006.79 1007.24 1007.77 1008.34 1008.94 1009.51 1010.04 1010.49 1010.86 1011.16 1011.39 1011.58 1011.75 1011.92 1012.10 1012.30 1012.51 1012.73 1012.94 1013.14 1013.32 1013.48 1013.62 1013.74 1013.84 1013.95 1014.05 1014.16 1014.29 1014.42 1014.58 1014.75 1014.94 1015.14 1015.35
1005.27 1005.17 1005.08 1005.02 1005.02 1005.11 1005.30 1005.60 1006.01 1006.52 1007.10 1007.71 1008.31 1008.89 1009.40 1009.85 1010.22 1010.53 1010.80 1011.04 1011.27 1011.50 1011.74 1011.98 1012.23 1012.47 1012.69 1012.89 1013.06 1013.20 1013.33 1013.44 1013.55 1013.66 1013.78 1013.91 1014.05 1014.20 1014.36 1014.54 1014.72 1014.91 1015.11
1005.04 1004.82 1004.61 1004.47 1004.41 1004.48 1004.68 1005.00 1005.45 1005.99 1006.59 1007.20 1007.80 1008.35 1008.85 1009.28 1009.65 1009.97 1010.27 1010.55 1010.84 1011.12 1011.41 1011.70 1011.97 1012.21 1012.42 1012.60 1012.75 1012.87 1012.97 1013.07 1013.18 1013.30 1013.44 1013.59 1013.75 1013.92 1014.09 1014.26 1014.44 1014.61 1014.77
1004.95 1004.64 1004.37 1004.18 1004.10 1004.16 1004.36 1004.70 1005.16 1005.70 1006.28 1006.87 1007.43 1007.94 1008.40 1008.80 1009.16 1009.49 1009.81 1010.12 1010.45 1010.77 1011.10 1011.40 1011.68 1011.92 1012.11 1012.26 1012.37 1012.46 1012.55 1012.64 1012.75 1012.89 1013.04 1013.22 1013.40 1013.59 1013.78 1013.95 1014.10 1014.25 1014.38
1004.99 1004.65 1004.36 1004.16 1004.08 1004.14 1004.35 1004.69 1005.13 1005.65 1006.19 1006.72 1007.22 1007.67 1008.07 1008.43 1008.76 1009.07 1009.39 1009.72 1010.06 1010.41 1010.74 1011.05 1011.31 1011.53 1011.69 1011.81 1011.90 1011.97 1012.05 1012.14 1012.27 1012.43 1012.62 1012.82 1013.04 1013.25 1013.44 1013.61 1013.75 1013.87 1013.98
1005.11 1004.80 1004.53 1004.35 1004.29 1004.37 1004.58 1004.91 1005.32 1005.78 1006.26 1006.71 1007.13 1007.50 1007.83 1008.13 1008.41 1008.70 1009.00 1009.32 1009.65 1009.98 1010.30 1010.58 1010.82 1011.01 1011.14 1011.24 1011.31 1011.38 1011.46 1011.58 1011.74 1011.93 1012.16 1012.41 1012.66 1012.89 1013.10 1013.27 1013.40 1013.50 1013.58
1005.30 1005.04 1004.82 1004.70 1004.68 1004.77 1004.98 1005.28 1005.64 1006.03 1006.42 1006.78 1007.10 1007.39 1007.64 1007.87 1008.10 1008.34 1008.60 1008.89 1009.18 1009.47 1009.75 1009.99 1010.19 1010.34 1010.45 1010.53 1010.60 1010.68 1010.79 1010.95 1011.15 1011.40 1011.68 1011.97 1012.25 1012.51 1012.74 1012.91 1013.05 1013.14 1013.19
1005.50 1005.32 1005.19 1005.12 1005.14 1005.25 1005.44 1005.70 1005.99 1006.30 1006.59 1006.85 1007.08 1007.27 1007.45 1007.61 1007.78 1007.97 1008.18 1008.41 1008.65 1008.89 1009.11 1009.29 1009.44 1009.55 1009.64 1009.71 1009.79 1009.90 1010.05 1010.25 1010.51 1010.81 1011.14 1011.47 1011.79 1012.08 1012.32 1012.51 1012.65 1012.74 1012.80
1005.72 1005.63 1005.57 1005.56 1005.61 1005.73 1005.89 1006.09 1006.30 1006.51 1006.70 1006.87 1007.00 1007.12 1007.22 1007.33 1007.45 1007.58 1007.74 1007.91 1008.09 1008.26 1008.41 1008.53 1008.63 1008.70 1008.76 1008.83 1008.92 1009.06 1009.25 1009.50 1009.81 1010.15 1010.52 1010.89 1011.24 1011.55 1011.81 1012.01 1012.17 1012.28 1012.35
1005.96 1005.94 1005.95 1005.99 1006.05 1006.15 1006.27 1006.39 1006.51 1006.62 1006.72 1006.79 1006.85 1006.90 1006.95 1007.01 1007.09 1007.19 1007.30 1007.42 1007.53 1007.63 1007.71 1007.77 1007.81 1007.84 1007.87 1007.93 1008.03 1008.19 1008.41 1008.70 1009.03 1009.41 1009.80 1010.18 1010.55 1010.87 1011.14 1011.36 1011.54 1011.69 1011.80
1006.23 1006.28 1006.33 1006.38 1006.44 1006.50 1006.55 1006.59 1006.61 1006.62 1006.62 1006.61 1006.60 1006.60 1006.62 1006.66 1006.72 1006.79 1006.87 1006.94 1007.01 1007.05 1007.06 1007.06 1007.04 1007.02 1007.03 1007.07 1007.16 1007.32 1007.55 1007.84 1008.18 1008.56 1008.95 1009.33 1009.68 1010.01 1010.29 1010.54 1010.75 1010.93 1011.10
Thickness
5814 5814 5812 5810 5806 5802 5800 5798 5795 5794 5792 5789 5786 5783 5781 5782 5782 5782 5781 5780 5779 5777 5775 5773 5772 5771 5769 5768 5766 5765 5762 5761 5761 5758 5756 5760 5763 5764 5764 5765 5765 5764 5764
5810 5810 5809 5807 5804 5801 5799 5797 5795 5793 5792 5790 5788 5786 5784 5783 5782 5782 5781 5780 5778 5777 5775 5773 5771 5770 5769 5767 5765 5763 5760 5759 5759 5754 5749 5746 5750 5757 5762 5762 5762 5762 5762
5811 5809 5807 5805 5803 5800 5798 5797 5795 5793 5792 5791 5789 5786 5783 5781 5779 5778 5778 5779 5778 5777 5775 5774 5772 5770 5769 5766 5764 5762 5759 5755 5756 5756 5749 5742 5740 5746 5754 5758 5760 5760 5760
5814 5810 5807 5805 5804 5802 5800 5797 5795 5793 5792 5790 5787 5783 5778 5775 5776 5776 5777 5777 5777 5776 5775 5774 5772 5770 5768 5766 5764 5763 5760 5756 5752 5753 5754 5751 5749 5742 5742 5750 5756 5758 5758
5817 5812 5811 5809 5806 5803 5800 5797 5793 5791 5790 5788 5786 5782 5779 5777 5776 5776 5774 5774 5775 5775 5774 5773 5771 5769 5768 5766 5764 5762 5759 5757 5754 5751 5750 5749 5748 5747 5741 5740 5747 5752 5756
5818 5814 5812 5809 5805 5802 5799 5796 5792 5789 5788 5787 5785 5782 5778 5776 5774 5772 5771 5771 5772 5773 5773 5772 5771 5769 5767 5765 5763 5761 5759 5757 5755 5753 5751 5748 5745 5743 5741 5739 5741 5743 5749
5815 5812 5807 5804 5802 5800 5798 5795 5791 5787 5786 5785 5783 5781 5779 5776 5774 5772 5770 5769 5769 5769 5770 5770 5769 5768 5766 5765 5763 5760 5758 5756 5754 5752 5751 5750 5749 5748 5744 5740 5738 5739 5743
5813 5811 5809 5806 5803 5801 5798 5794 5789 5786 5784 5783 5781 5780 5778 5776 5774 5772 5770 5769 5768 5769 5769 5768 5767 5766 5765 5763 5761 5759 5758 5756 5754 5753 5751 5749 5749 5748 5746 5741 5737 5734 5736
5812 5809 5806 5804 5802 5800 5797 5794 5789 5785 5783 5780 5779 5777 5776 5774 5772 5771 5770 5769 5768 5768 5767 5766 5765 5763 5762 5761 5759 5757 5755 5754 5752 5751 5749 5747 5747 5747 5746 5743 5740 5733 5729
5808 5805 5803 5801 5800 5799 5796 5792 5787 5783 5781 5778 5777 5775 5773 5772 5771 5769 5767 5766 5766 5765 5764 5763 5761 5760 5759 5758 5756 5754 5753 5751 5749 5748 5746 5745 5744 5743 5742 5741 5739 5736 5731
5804 5802 5801 5800 5798 5795 5792 5788 5785 5782 5779 5777 5775 5773 5771 5770 5768 5766 5765 5764 5763 5762 5760 5758 5757 5756 5755 5754 5752 5750 5749 5746 5745 5744 5742 5741 5741 5739 5738 5737 5735 5733 5730
5801 5800 5798 5796 5792 5789 5787 5784 5782 5780 5778 5776 5773 5770 5768 5766 5764 5763 5762 5761 5759 5758 5757 5755 5753 5751 5750 5749 5747 5745 5744 5742 5740 5739 5738 5736 5736 5733 5733 5732 5730 5729 5728
5794 5792 5791 5789 5787 5784 5782 5781 5779 5777 5775 5773 5769 5765 5763 5761 5760 5759 5758 5757 5755 5754 5753 5751 5748 5747 5746 5744 5743 5741 5740 5738 5736 5735 5733 5732 5730 5728 5727 5726 5725 5724 5724
5787 5785 5783 5782 5781 5780 5777 5776 5774 5773 5771 5768 5764 5760 5759 5758 5757 5755 5753 5752 5751 5749 5748 5746 5744 5743 5741 5739 5738 5737 5735 5733 5732 5731 5729 5728 5726 5724 5723 5722 5719 5718 5716
5779 5778 5776 5775 5774 5773 5771 5770 5768 5767 5765 5762 5759 5756 5754 5754 5752 5750 5749 5748 5747 5745 5743 5741 5739 5738 5736 5735 5733 5732 5730 5728 5726 5725 5725 5724 5723 5722 5720 5718 5714 5712 5709
5774 5772 5771 5768 5766 5765 5762 5761 5761 5761 5759 5756 5754 5753 5750 5748 5746 5745 5743 5741 5740 5739 5737 5735 5733 5732 5732 5731 5730 5727 5724 5722 5720 5719 5718 5719 5717 5716 5715 5713 5711 5709 5704
5768 5766 5765 5763 5761 5759 5758 5753 5753 5754 5752 5750 5747 5745 5743 5741 5740 5739 5737 5734 5733 5731 5729 5728 5727 5725 5725 5724 5723 5721 5718 5716 5714 5713 5711 5711 5711 5709 5707 5706 5704 5703 5702
5763 5761 5760 5758 5755 5754 5752 5749 5748 5746 5744 5741 5739 5738 5736 5734 5733 5731 5729 5727 5726 5723 5721 5720 5719 5718 5718 5717 5715 5714 5712 5709 5708 5707 5705 5703 5702 5702 5699 5698 5696 5694 5694
5759 5757 5755 5753 5750 5748 5744 5741 5741 5738 5735 5732 5731 5731 5730 5728 5725 5723 5722 5720 5718 5716 5714 5713 5712 5710 5709 5709 5707 5706 5703 5701 5700 5700 5699 5697 5696 5695 5693 5690 5687 5686 5685
5753 5750 5749 5746 5742 5740 5737 5733 5730 5727 5726 5726 5724 5725 5724 5721 5719 5716 5714 5712 5710 5708 5707 5705 5704 5702 5701 5700 5699 5697 5695 5693 5692 5691 5691 5691 5689 5688 5686 5682 5679 5677 5677
5746 5743 5740 5736 5734 5732 5729 5724 5721 5719 5721 5721 5719 5718 5717 5715 5713 5710 5707 5705 5702 5700 5698 5696 5695 5693 5692 5691 5690 5689 5687 5685 5683 5682 5682 5682 5681 5680 5678 5676 5673 5672 5670
5735 5734 5730 5726 5725 5723 5720 5715 5713 5714 5715 5714 5711 5710 5709 5708 5707 5702 5700 5697 5694 5691 5688 5685 5683 5683 5682 5681 5681 5680 5679 5677 5675 5674 5674 5674 5673 5672 5670 5668 5667 5664 5662
5724 5723 5721 5717 5715 5714 5711 5707 5707 5707 5706 5704 5702 5701 5701 5699 5698 5694 5691 5688 5685 5682 5679 5676 5674 5672 5672 5672 5672 5671 5670 5669 5667 5666 5666 5665 5664 5663 5660 5659 5658 5655 5652
5713 5712 5710 5707 5704 5703 5702 5700 5700 5699 5697 5693 5692 5691 5690 5689 5688 5685 5683 5680 5676 5673 5671 5668 5665 5663 5662 5662 5661 5660 5659 5658 5657 5656 5656 5655 5654 5653 5651 5649 5647 5645 5643
5702 5700 5698 5696 5694 5694 5693 5693 5692 5691 5688 5686 5684 5682 5681 5680 5678 5676 5674 5672 5670 5668 5665 5662 5659 5655 5654 5653 5652 5651 5650 5649 5648 5646 5645 5643 5642 5641 5639 5638 5637 5636 5634
5690 5688 5688 5686 5686 5685 5684 5684 5684 5683 5680 5677 5676 5674 5673 5672 5670 5667 5664 5664 5662 5660 5658 5656 5652 5650 5648 5646 5644 5643 5642 5641 5640 5637 5635 5634 5632 5631 5630 5628 5627 5626 5625